ND5T Weather Reports


Display with metric or nautical units.
time (UTC)temp
F
wind
direction
speed
MPH
gust
MPH
rain 1hr
in
rain 24hr
in
rain mn
in
humidity
%
barometer
mb
20260506073033 76 90 0.0 0.0 0.00 0.00 0.00 90 1009.2
20260506071604 76 90 0.0 0.0 0.00 0.00 0.00 90 1009.3
20260506061520 76 120 0.0 2.0 0.00 0.00 0.00 90 1009.4
20260506060136 76 105 0.0 0.0 0.00 0.00 0.00 90 1009.3
20260506044532 76 342 0.0 2.0 0.00 0.00 0.00 89 1009.4
20260506043049 77 172 0.0 2.0 0.00 0.00 0.00 88 1009.5
20260506041602 77 148 0.0 2.0 0.00 0.00 0.00 88 1009.3
20260506040124 77 307 0.0 2.0 0.00 0.00 0.00 88 1009.3
20260506034529 77 27 0.0 2.0 0.00 0.00 0.00 87 1009.1
20260506033028 77 74 0.0 1.0 0.00 0.00 0.00 87 1009.1
20260506031601 77 92 0.0 2.0 0.00 0.00 0.00 87 1008.9
20260506030124 77 95 0.0 1.0 0.00 0.00 0.00 86 1008.9
20260506024557 77 19 0.0 1.0 0.00 0.00 0.00 86 1008.5
20260506023045 78 91 0.0 1.0 0.00 0.00 0.00 86 1008.3
20260506021522 78 91 0.0 3.0 0.00 0.00 0.00 85 1008.1
20260506020118 78 83 0.0 2.0 0.00 0.00 0.00 85 1007.9
20260506014518 78 77 0.0 2.0 0.00 0.00 0.00 84 1007.7
20260506013037 78 39 0.0 3.0 0.00 0.00 0.00 84 1007.5
20260506011521 79 9 0.0 2.0 0.00 0.00 0.00 84 1007.3
20260506010009 79 55 0.0 1.0 0.00 0.00 0.00 83 1007.1
20260506004550 79 67 0.0 0.0 0.00 0.00 0.00 83 1007.1
20260506003009 80 149 0.0 2.0 0.00 0.00 0.00 82 1007.0
20260506001607 80 61 0.0 1.0 0.00 0.00 0.00 81 1006.9
20260506000052 80 61 0.0 3.0 0.00 0.00 0.00 80 1006.9
20260505234611 81 38 0.0 2.0 0.00 0.00 0.00 79 1006.8
20260505233104 81 61 0.0 1.0 0.00 0.00 0.00 78 1006.9
20260505231557 81 355 0.0 1.0 0.00 0.00 0.00 78 1007.0
20260505230022 82 126 0.0 1.0 0.00 0.00 0.00 78 1006.7
20260505224557 82 313 0.0 3.0 0.00 0.00 0.00 78 1006.6
20260505223053 82 325 0.0 1.0 0.00 0.00 0.00 79 1006.8
20260505221535 82 303 0.0 2.0 0.00 0.00 0.00 79 1006.6
20260505220016 82 96 0.0 3.0 0.00 0.00 0.00 78 1006.9
20260505214557 82 30 0.0 4.0 0.00 0.00 0.00 78 1007.1
20260505213010 82 94 0.0 3.0 0.00 0.00 0.00 77 1007.5
20260505211552 83 102 0.0 2.0 0.00 0.00 0.00 77 1007.5
20260505210107 83 82 0.0 2.0 0.00 0.00 0.00 77 1007.6
20260505204556 83 121 0.0 6.0 0.00 0.00 0.00 77 1007.7
20260505203006 83 160 0.0 3.0 0.00 0.00 0.00 78 1008.0
20260505201552 82 42 0.0 1.0 0.00 0.00 0.00 78 1008.3
20260505200055 82 61 0.0 3.0 0.00 0.00 0.00 77 1008.4
20260505194502 82 351 0.0 7.0 0.00 0.00 0.00 77 1008.6
20260505193100 82 129 0.0 6.0 0.00 0.00 0.00 79 1008.5
20260505191541 81 284 0.0 2.0 0.00 0.00 0.00 81 1008.7
20260505190124 80 316 0.0 2.0 0.00 0.00 0.00 81 1008.9
20260505184536 80 115 0.0 3.0 0.00 0.00 0.00 80 1009.1
20260505183056 80 59 0.0 4.0 0.00 0.00 0.00 82 1009.2
20260505181528 79 97 0.0 0.0 0.00 0.00 0.00 84 1009.3
20260505180120 79 124 0.0 3.0 0.00 0.00 0.00 84 1009.2
20260505174548 78 153 0.0 3.0 0.00 0.00 0.00 85 1009.3
20260505173048 77 109 0.0 1.0 0.00 0.00 0.00 86 1009.5
20260505171514 77 121 0.0 0.0 0.00 0.00 0.00 86 1009.7
20260505170111 77 150 0.0 1.0 0.00 0.00 0.00 86 1009.8
20260505164540 77 153 0.0 4.0 0.00 0.00 0.00 85 1009.7
20260505163056 77 108 0.0 2.0 0.00 0.00 0.00 86 1009.9
20260505161604 77 109 0.0 1.0 0.00 0.00 0.00 86 1009.7
20260505153018 76 178 0.0 3.0 0.00 0.00 0.00 86 1009.6
20260505151556 76 82 0.0 2.0 0.00 0.00 0.00 86 1009.6
20260505150115 76 333 0.0 1.0 0.00 0.00 0.00 86 1009.6
20260505140117 74 55 0.0 5.0 0.00 0.00 0.00 88 1009.1
20260505124532 72 58 0.0 1.0 0.00 0.00 0.00 90 1008.6
20260505123046 72 57 0.0 4.0 0.00 0.00 0.00 91 1009.1
20260505121505 72 180 0.0 2.0 0.00 0.00 0.00 91 1008.9
20260505120126 71 325 0.0 1.0 0.00 0.00 0.00 91 1008.7
20260505114541 71 59 0.0 2.0 0.00 0.00 0.00 91 1008.9
20260505113039 71 133 0.0 2.0 0.00 0.00 0.00 91 1008.8
20260505111513 70 65 0.0 0.0 0.00 0.00 0.00 92 1008.7
20260505101600 69 65 0.0 0.0 0.00 0.00 0.00 92 1008.8
20260505100108 69 65 0.0 0.0 0.00 0.00 0.00 92 1008.8
20260505094559 69 65 0.0 0.0 0.00 0.00 0.00 92 1008.8
20260505093027 69 65 0.0 0.0 0.00 0.00 0.00 91 1009.1
20260505091559 69 65 0.0 0.0 0.00 0.00 0.00 91 1008.9
20260505090119 69 65 0.0 0.0 0.00 0.00 0.00 91 1009.1
20260505084525 69 65 0.0 0.0 0.00 0.00 0.00 90 1009.2
20260505083031 69 65 0.0 0.0 0.00 0.00 0.00 90 1009.2
20260505081559 69 65 0.0 0.0 0.00 0.00 0.00 90 1009.4
20260505080109 69 65 0.0 0.0 0.00 0.00 0.00 89 1009.4
20260505074523 69 65 0.0 0.0 0.00 0.00 0.00 89 1009.4